Location: Acheville
(50.3840°N, 2.8827°E)
Time: 15:47:15
(UTC+00:00)

Lacrosse 4 Rocket - Pass Details

Date: 24 October 2021
Orbit: 538 x 619 km, 68.0° (Epoch: 27 November)

Event Time Altitude Azimuth Distance (km) Brightness Sun altitude
Rises 17:25:38 0° 327° (NNW) 2,801 5.3 -8.1°
Reaches altitude 10° 17:27:53 10° 332° (NNW) 1,912 4.3 -8.5°
Maximum altitude 17:32:07 56° 51° (NE) 712 1.6 -9.1°
Drops below altitude 10° 17:36:26 10° 130° (SE) 1,947 3.7 -9.8°
Enters shadow 17:38:33 - 135° (SE) 2,782 4.5 -10.2°
